Location: Bay Ridge
(40.6340°N, 74.0146°W)
Time: 21:33:02
(UTC+00:00)

Cosmos 2360 Rocket - Pass Details

Date: 15 November 2019
Orbit: 832 x 847 km, 71.0° (Epoch: 11 December)

Event Time Altitude Azimuth Distance (km) Brightness Sun altitude
Rises 10:25:36 0° 344° (NNW) 3,416 5.1 -14.7°
Reaches altitude 10° 10:28:18 10° 353° (N) 2,477 4.4 -14.2°
Maximum altitude 10:33:26 34° 58° (ENE) 1,372 3.8 -13.2°
Drops below altitude 10° 10:38:31 10° 122° (ESE) 2,463 5.9 -12.3°
Sets 10:41:11 0° 132° (SE) 3,394 6.6 -11.8°
